Location: El Carrer d�Abaix
(41.5797°N, 2.1791°E)
Time: 21:52:00
(UTC+00:00)

Cosmos 2082 Rocket - Pass Details

Date: 08 October 2020
Orbit: 834 x 853 km, 71.0° (Epoch: 27 October)

Event Time Altitude Azimuth Distance (km) Brightness Sun altitude
Rises 19:18:31 0° 322° (NW) 3,396 6.1 -22.7°
Reaches altitude 10° 19:21:30 10° 307° (NW) 2,459 5.5 -23.3°
Maximum altitude 19:25:37 21° 259° (W) 1,789 4.6 -24.0°
Drops below altitude 10° 19:29:45 10° 212° (SSW) 2,456 4.8 -24.8°
Sets 19:32:44 0° 197° (SSW) 3,389 5.4 -25.3°
